This is the latest recevied weather packets stored in our database for station/object N6ZHV-13. If no packets are shown the sender has not sent any weather packets the latest 10 day(s).
| Time | Temp. | Humidity | Pressure | Rain* | Wind** | Luminosity | Snow |
|---|---|---|---|---|---|---|---|
| 1778026191 | 17.22° C | 58% | 1015.6 hPa | 0 mm | - | - | - |
| 1778025891 | 17.22° C | 57% | 1014.5 hPa | 0 mm | - | - | - |
| 1778025591 | 17.22° C | 55% | 1015.7 hPa | 0 mm | - | - | - |
| 1778025291 | 17.22° C | 53% | 1015.8 hPa | 0 mm | - | - | - |
| 1778024991 | 17.22° C | 54% | 1015.8 hPa | 0 mm | - | - | - |
| 1778024691 | 17.22° C | 54% | 1015.8 hPa | 0 mm | - | - | - |
| 1778024391 | 17.78° C | 54% | 1015.8 hPa | 0 mm | - | - | - |
| 1778024091 | 17.78° C | 54% | 1015.8 hPa | 0 mm | - | - | - |
| 1778023791 | 17.22° C | 53% | 1015.8 hPa | 0 mm | - | - | - |
| 1778023491 | 17.22° C | 55% | 1015.9 hPa | 0 mm | - | - | - |
| 1778023191 | 17.22° C | 54% | 1015.9 hPa | 0 mm | - | - | - |
| 1778022891 | 17.78° C | 53% | 1016 hPa | 0 mm | - | - | - |
| 1778022591 | 17.78° C | 54% | 1016 hPa | 0 mm | - | - | - |
| 1778022291 | 18.33° C | 53% | 1016 hPa | 0 mm | - | - | - |
| 1778021991 | 17.22° C | 55% | 1016.1 hPa | 0 mm | - | - | - |
| 1778021691 | 17.22° C | 54% | 1016.1 hPa | 0 mm | - | - | - |
| 1778021391 | 17.22° C | 53% | 1016.2 hPa | 0 mm | - | - | - |
| 1778021091 | 17.22° C | 54% | 1016.2 hPa | 0 mm | - | - | - |
| 1778020791 | 17.22° C | 54% | 1016.3 hPa | 0 mm | - | - | - |
| 1778020491 | 17.22° C | 53% | 1016.3 hPa | 0 mm | - | - | - |
| 1778020191 | 17.22° C | 53% | 1016.3 hPa | 0 mm | - | - | - |
| 1778019891 | 16.67° C | 53% | 1016.4 hPa | 0 mm | - | - | - |
| 1778019591 | 17.22° C | 54% | 1016.4 hPa | 0 mm | - | - | - |
| 1778019291 | 17.78° C | 53% | 1016.3 hPa | 0 mm | - | - | - |
| 1778018991 | 17.22° C | 52% | 1016.4 hPa | 0 mm | - | - | - |
* Rain latest hour (hover to see other rain measurements)
** Current wind speed in m/s (hover to see current wind gust speed)